St. George, UT

11:45 AM MST on December 17, 2017 (GMT -0700)
Saint George Municipal

Weather History for KSGU - June, 2013

Change the Weather History Date:

Monday, June 24, 2013

  Actual Average Record
Temperature  
Mean Temperature 80 °F -  
Max Temperature 89 °F 99 °F 109 °F (1929)
Min Temperature 71 °F 66 °F 49 °F (1948)
Cooling Degree Days 15    
Growing Degree Days 30 (Base 50)    
Moisture  
Dew Point 30 °F    
Average Humidity 15    
Maximum Humidity 20    
Minimum Humidity 11    
Precipitation  
Precipitation 0.00 in - - ()
Sea Level Pressure  
Sea Level Pressure 29.80 in    
Wind  
Wind Speed 14 mph (South)    
Max Wind Speed 31 mph    
Max Gust Speed 36 mph    
Visibility 10 miles    
Events      
Averages and records for this station are not official NWS values.
T = Trace of Precipitation, MM = Missing Value Source: NWS Daily Summary

Daily Weather History Graph

Daily Weather History Graph

Search for Another Location

Airport or City:

Trip Planner

Search our weather history database for the weather conditions in past years. The results will help you decide how hot, cold, wet, or windy it might be!

Date:

Astronomy

Jun. 24, 2013 Rise Set
Actual Time 6:15 AM MDT 8:57 PM MDT
Civil Twilight 5:44 AM MDT 9:28 PM MDT
Nautical Twilight 5:06 AM MDT 10:07 PM MDT
Astronomical Twilight 4:22 AM MDT 10:50 PM MDT
Moon 10:06 PM MDT (6/24) 7:45 AM MDT (6/24)
Length of Visible Light 15h 43m
Length of Day
14h 42m
Full, 97% of the Moon is Illuminated
Jun 24
Full
Jun 29
Last Quarter
Jul 8
New
Jul 15
First Quarter
Jul 22
Full

Hourly Weather History & Observations

Time (MDT) Temp. Dew Point Humidity Pressure Visibility Wind Dir Wind Speed Gust Speed Precip Events Conditions
12:15 AM 84.2 °F 23.0 °F 11% 29.73 in 10.0 mi South 15.0 mph - N/A   Clear
12:35 AM 84.2 °F 23.0 °F 11% 29.73 in 10.0 mi South 12.7 mph - N/A   Clear
12:55 AM 82.4 °F 23.0 °F 11% 29.74 in 10.0 mi South 11.5 mph - N/A   Clear
1:15 AM 78.8 °F 19.4 °F 11% 29.73 in 10.0 mi SE 10.4 mph - N/A   Clear
1:35 AM 77.0 °F 21.2 °F 12% 29.74 in 10.0 mi ESE 11.5 mph - N/A   Clear
1:55 AM 77.0 °F 23.0 °F 13% 29.74 in 10.0 mi ESE 9.2 mph - N/A   Clear
2:15 AM 78.8 °F 24.8 °F 14% 29.75 in 10.0 mi Calm Calm - N/A   Clear
2:35 AM 78.8 °F 23.0 °F 13% 29.74 in 10.0 mi ESE 5.8 mph - N/A   Clear
2:55 AM 75.2 °F 21.2 °F 13% 29.74 in 10.0 mi ESE 8.1 mph - N/A   Clear
3:15 AM 73.4 °F 21.2 °F 14% 29.74 in 10.0 mi SE 9.2 mph - N/A   Clear
3:35 AM 75.2 °F 21.2 °F 13% 29.74 in 10.0 mi SE 9.2 mph - N/A   Clear
3:55 AM 73.4 °F 21.2 °F 14% 29.74 in 10.0 mi SSE 12.7 mph - N/A   Clear
4:15 AM 73.4 °F 21.2 °F 14% 29.74 in 10.0 mi SE 13.8 mph - N/A   Clear
4:35 AM 73.4 °F 21.2 °F 14% 29.74 in 10.0 mi SE 11.5 mph - N/A   Clear
4:55 AM 73.4 °F 21.2 °F 14% 29.74 in 10.0 mi SE 12.7 mph - N/A   Clear
5:15 AM 73.4 °F 21.2 °F 14% 29.75 in 10.0 mi SE 13.8 mph - N/A   Clear
5:35 AM 73.4 °F 21.2 °F 14% 29.75 in 10.0 mi SE 11.5 mph - N/A   Clear
5:55 AM 71.6 °F 21.2 °F 15% 29.76 in 10.0 mi ESE 13.8 mph - N/A   Clear
6:15 AM 71.6 °F 23.0 °F 16% 29.76 in 10.0 mi SE 8.1 mph - N/A   Clear
6:35 AM 71.6 °F 24.8 °F 17% 29.77 in 10.0 mi ESE 12.7 mph - N/A   Clear
6:55 AM 73.4 °F 26.6 °F 18% 29.77 in 10.0 mi SE 11.5 mph - N/A   Clear
7:15 AM 73.4 °F 26.6 °F 18% 29.77 in 10.0 mi ESE 13.8 mph - N/A   Clear
7:35 AM 75.2 °F 26.6 °F 17% 29.78 in 10.0 mi SE 13.8 mph - N/A   Clear
7:55 AM 78.8 °F 28.4 °F 16% 29.78 in 10.0 mi SE 15.0 mph - N/A   Clear
8:15 AM 80.6 °F 30.2 °F 16% 29.79 in 10.0 mi SE 12.7 mph - N/A   Clear
8:35 AM 80.6 °F 30.2 °F 16% 29.80 in 10.0 mi SE 9.2 mph - N/A   Clear
8:55 AM 82.4 °F 30.2 °F 15% 29.81 in 10.0 mi SE 10.4 mph - N/A   Clear
9:15 AM 82.4 °F 32.0 °F 16% 29.81 in 10.0 mi SSE 9.2 mph 17.3 mph N/A   Clear
9:35 AM 82.4 °F 32.0 °F 16% 29.82 in 10.0 mi SSW 10.4 mph 19.6 mph N/A   Clear
9:55 AM 84.2 °F 30.2 °F 14% 29.82 in 10.0 mi SSW 20.7 mph 33.4 mph N/A   Clear
10:15 AM 86.0 °F 30.2 °F 13% 29.82 in 10.0 mi South 21.9 mph 26.5 mph N/A   Clear
10:35 AM 84.2 °F 30.2 °F 14% 29.82 in 10.0 mi South 17.3 mph 26.5 mph N/A   Clear
10:55 AM 84.2 °F 30.2 °F 14% 29.83 in 10.0 mi SSW 20.7 mph 28.8 mph N/A   Clear
11:15 AM 87.8 °F 30.2 °F 13% 29.83 in 10.0 mi SSW 27.6 mph 33.4 mph N/A   Clear
11:35 AM 87.8 °F 30.2 °F 13% 29.84 in 10.0 mi SSW 25.3 mph 33.4 mph N/A   Clear
11:55 AM 86.0 °F 30.2 °F 13% 29.84 in 10.0 mi SSW 21.9 mph 29.9 mph N/A   Clear
12:15 PM 86.0 °F 30.2 °F 13% 29.83 in 10.0 mi SSW 17.3 mph 24.2 mph N/A   Clear
12:35 PM 87.8 °F 30.2 °F 13% 29.82 in 10.0 mi SW 20.7 mph 25.3 mph N/A   Clear
12:55 PM 87.8 °F 32.0 °F 14% 29.82 in 10.0 mi SSW 23.0 mph 33.4 mph N/A   Clear
1:15 PM 89.6 °F 33.8 °F 14% 29.81 in 10.0 mi SW 23.0 mph 29.9 mph N/A   Clear
1:35 PM 89.6 °F 33.8 °F 14% 29.82 in 10.0 mi SSW 27.6 mph 33.4 mph N/A   Clear
1:55 PM 87.8 °F 33.8 °F 15% 29.82 in 10.0 mi SW 24.2 mph 28.8 mph N/A   Clear
2:15 PM 87.8 °F 33.8 °F 15% 29.82 in 10.0 mi SSW 20.7 mph 29.9 mph N/A   Clear
2:35 PM 87.8 °F 35.6 °F 16% 29.82 in 10.0 mi SSW 17.3 mph 25.3 mph N/A   Clear
2:55 PM 89.6 °F 33.8 °F 14% 29.82 in 10.0 mi SSW 18.4 mph 33.4 mph N/A   Clear
3:15 PM 87.8 °F 35.6 °F 16% 29.82 in 10.0 mi West 12.7 mph 19.6 mph N/A   Clear
3:35 PM 87.8 °F 35.6 °F 16% 29.83 in 10.0 mi WSW 11.5 mph 17.3 mph N/A   Clear
3:55 PM 87.8 °F 35.6 °F 16% 29.82 in 10.0 mi West 10.4 mph - N/A   Clear
4:55 PM 86.0 °F 35.6 °F 17% 29.82 in 10.0 mi West 11.5 mph 19.6 mph N/A   Clear
5:15 PM 87.8 °F 35.6 °F 16% 29.82 in 10.0 mi West 11.5 mph 18.4 mph N/A   Clear
5:35 PM 89.6 °F 35.6 °F 15% 29.81 in 10.0 mi SW 19.6 mph 24.2 mph N/A   Clear
6:15 PM 89.6 °F 35.6 °F 15% 29.80 in 10.0 mi SSW 19.6 mph 27.6 mph N/A   Clear
6:35 PM 89.6 °F 35.6 °F 15% 29.80 in 10.0 mi SW 21.9 mph 28.8 mph N/A   Clear
6:55 PM 87.8 °F 33.8 °F 15% 29.79 in 10.0 mi SW 31.1 mph 35.7 mph N/A   Clear
7:15 PM 89.6 °F 33.8 °F 14% 29.80 in 10.0 mi SW 18.4 mph 29.9 mph N/A   Clear
7:35 PM 87.8 °F 33.8 °F 15% 29.80 in 10.0 mi SW 24.2 mph 28.8 mph N/A   Clear
7:55 PM 87.8 °F 33.8 °F 15% 29.80 in 10.0 mi SSW 24.2 mph 29.9 mph N/A   Clear
8:15 PM 87.8 °F 33.8 °F 15% 29.81 in 10.0 mi SSW 23.0 mph 28.8 mph N/A   Clear
8:35 PM 86.0 °F 33.8 °F 15% 29.81 in 10.0 mi SW 19.6 mph 25.3 mph N/A   Clear
8:55 PM 84.2 °F 33.8 °F 16% 29.82 in 10.0 mi SSW 16.1 mph 27.6 mph N/A   Clear
9:15 PM 84.2 °F 33.8 °F 16% 29.83 in 10.0 mi SW 20.7 mph 25.3 mph N/A   Clear
9:35 PM 84.2 °F 33.8 °F 16% 29.84 in 10.0 mi SSW 16.1 mph - N/A   Clear
9:55 PM 82.4 °F 33.8 °F 17% 29.85 in 10.0 mi South 12.7 mph - N/A   Clear
10:15 PM 82.4 °F 33.8 °F 17% 29.86 in 10.0 mi South 11.5 mph - N/A   Clear
10:35 PM 82.4 °F 33.8 °F 17% 29.86 in 10.0 mi South 10.4 mph - N/A   Clear
10:55 PM 80.6 °F 33.8 °F 18% 29.87 in 10.0 mi South 6.9 mph - N/A   Clear
11:15 PM 80.6 °F 33.8 °F 18% 29.87 in 10.0 mi South 9.2 mph - N/A   Clear
11:35 PM 80.6 °F 33.8 °F 18% 29.87 in 10.0 mi South 6.9 mph - N/A   Clear
11:55 PM 78.8 °F 33.8 °F 20% 29.88 in 10.0 mi SSE 6.9 mph - N/A   Clear